Location: Lewisville
(33.0462°N, 96.9942°W)
Time: 15:34:28
(UTC-05:00)

Envisat - Pass Details

Date: 27 March 2021
Orbit: 764 x 766 km, 98.1° (Epoch: 18 May)

Event Time Altitude Azimuth Distance (km) Brightness Sun altitude
Rises 06:50:05 0° 15° (NNE) 3,236 6.6 -7.5°
Reaches altitude 10° 06:52:24 10° 17° (NNE) 2,306 5.8 -7.0°
Maximum altitude 06:57:28 71° 101° (E) 809 3.4 -6.0°
Drops below altitude 10° 07:02:31 10° 186° (S) 2,291 5.4 -4.9°
Sets 07:04:49 0° 188° (S) 3,213 6.1 -4.4°
